TimeEDT,TemperatureF,Dew PointF,Humidity,Sea Level PressureIn,VisibilityMPH,Wind Direction,Wind SpeedMPH,Gust SpeedMPH,PrecipitationIn,Events,Conditions,WindDirDegrees,DateUTC
12:53 AM,57.9,54.0,87,29.93,10.0,WNW,4.6,-,0.01,,Overcast,300,2013-09-08 04:53:00
1:53 AM,57.9,53.1,84,29.92,10.0,WNW,5.8,-,N/A,,Overcast,290,2013-09-08 05:53:00
2:53 AM,57.9,53.1,84,29.90,10.0,WNW,6.9,-,N/A,,Clear,300,2013-09-08 06:53:00
3:53 AM,57.9,53.1,84,29.89,10.0,WNW,8.1,-,N/A,,Scattered Clouds,290,2013-09-08 07:53:00
4:53 AM,57.0,53.1,87,29.88,10.0,WNW,6.9,-,N/A,,Clear,290,2013-09-08 08:53:00
5:53 AM,57.0,54.0,89,29.87,10.0,WNW,9.2,-,N/A,,Clear,290,2013-09-08 09:53:00
6:53 AM,57.9,55.0,90,29.89,9.0,NW,10.4,-,N/A,,Mostly Cloudy,310,2013-09-08 10:53:00
7:17 AM,59.0,55.4,88,29.91,9.0,WNW,10.4,-,N/A,,Mostly Cloudy,290,2013-09-08 11:17:00
7:48 AM,60.8,55.4,82,29.91,9.0,WNW,11.5,-,N/A,,Mostly Cloudy,290,2013-09-08 11:48:00
7:53 AM,60.1,55.9,86,29.90,9.0,WNW,9.2,17.3,N/A,,Mostly Cloudy,290,2013-09-08 11:53:00
8:31 AM,60.8,57.2,88,29.91,10.0,WNW,13.8,19.6,N/A,,Overcast,290,2013-09-08 12:31:00
8:53 AM,62.1,57.9,86,29.90,10.0,WNW,9.2,-,N/A,,Overcast,290,2013-09-08 12:53:00
9:53 AM,63.0,59.0,87,29.92,10.0,WNW,10.4,-,N/A,,Overcast,300,2013-09-08 13:53:00
10:22 AM,64.4,59.0,83,29.93,7.0,NW,10.4,20.7,N/A,,Overcast,310,2013-09-08 14:22:00
10:53 AM,64.0,60.1,87,29.91,7.0,NW,11.5,18.4,N/A,,Overcast,320,2013-09-08 14:53:00
11:26 AM,64.4,60.8,88,29.94,10.0,NNW,10.4,19.6,N/A,,Overcast,330,2013-09-08 15:26:00
11:36 AM,64.4,59.0,83,29.94,9.0,NNW,12.7,19.6,N/A,,Overcast,330,2013-09-08 15:36:00
11:53 AM,64.0,59.0,84,29.94,8.0,NNW,10.4,20.7,N/A,,Overcast,330,2013-09-08 15:53:00
12:22 PM,69.8,57.2,64,29.94,10.0,NNW,11.5,23.0,N/A,,Scattered Clouds,330,2013-09-08 16:22:00
12:53 PM,70.0,57.9,65,29.92,10.0,NNW,9.2,23.0,N/A,,Scattered Clouds,330,2013-09-08 16:53:00
1:29 PM,71.6,57.2,60,29.94,10.0,NW,13.8,23.0,N/A,,Mostly Cloudy,320,2013-09-08 17:29:00
1:38 PM,71.6,57.2,60,29.94,10.0,North,12.7,20.7,N/A,,Scattered Clouds,350,2013-09-08 17:38:00
1:53 PM,70.0,55.0,59,29.93,10.0,NNW,11.5,25.3,N/A,,Partly Cloudy,330,2013-09-08 17:53:00
2:53 PM,69.1,52.0,54,29.94,10.0,NNW,11.5,24.2,N/A,,Partly Cloudy,330,2013-09-08 18:53:00
3:53 PM,69.1,48.9,49,29.95,10.0,NNW,16.1,21.9,N/A,,Partly Cloudy,340,2013-09-08 19:53:00
4:53 PM,66.9,46.0,47,29.96,10.0,NNW,10.4,20.7,N/A,,Clear,340,2013-09-08 20:53:00
5:53 PM,66.0,42.1,42,29.99,10.0,NNW,11.5,18.4,N/A,,Clear,330,2013-09-08 21:53:00
6:53 PM,62.1,41.0,46,30.02,10.0,North,8.1,19.6,N/A,,Clear,350,2013-09-08 22:53:00
7:53 PM,57.0,43.0,59,30.04,10.0,North,4.6,-,N/A,,Clear,360,2013-09-08 23:53:00
8:53 PM,54.0,42.1,64,30.08,10.0,NNW,6.9,-,N/A,,Clear,340,2013-09-09 00:53:00
9:53 PM,53.1,41.0,64,30.10,10.0,North,9.2,-,N/A,,Clear,360,2013-09-09 01:53:00
10:53 PM,51.1,39.9,66,30.11,10.0,North,9.2,-,N/A,,Clear,10,2013-09-09 02:53:00
11:53 PM,50.0,39.9,68,30.13,10.0,Calm,Calm,-,N/A,,Clear,0,2013-09-09 03:53:00